• In Germany
  • List of Countries
  • For 7 days
  • Water Temperature
  • Satellite Maps
  • Weather Map
  • Weather Widgets
  • user-avatar
    Login

    Hourly Weather Uige

    Today, 25 April, Wednesday

    Time Temperature Precipitation Wind Pressure Humidity
    00:00 +22°C° 0.1 mm 1 mps 691 mmHg 95%
    01:00 +22°C° 0 mm 1 mps 691 mmHg 97%
    02:00 +22°C° 0.7 mm 1 mps 691 mmHg 98%
    03:00 +22°C° 0.7 mm 1 mps 691 mmHg 98%
    04:00 +22°C° 0.7 mm 1 mps 691 mmHg 98%
    05:00 +22°C° 0.4 mm 1 mps 691 mmHg 97%
    06:00 +22°C° 0.4 mm 1 mps 691 mmHg 97%
    07:00 +23°C° 0 mm 1 mps 692 mmHg 94%
    08:00 +25°C° 0.8 mm 1 mps 692 mmHg 88%
    09:00 +26°C° 0.8 mm 1 mps 692 mmHg 82%
    10:00 +28°C° 0.8 mm 1 mps 693 mmHg 75%
    11:00 +29°C° 0.7 mm 1 mps 692 mmHg 70%
    12:00 +30°C° 0.7 mm 1 mps 692 mmHg 66%
    13:00 +31°C° 0.7 mm 1 mps 692 mmHg 61%
    14:00 +30°C° 1.6 mm 1 mps 691 mmHg 68%
    15:00 +28°C° 1.6 mm 1 mps 691 mmHg 76%
    16:00 +27°C° 1.6 mm 1 mps 690 mmHg 84%
    17:00 +26°C° 1.4 mm 1 mps 691 mmHg 87%
    18:00 +24°C° 1.4 mm 1 mps 691 mmHg 91%
    19:00 +23°C° 1.4 mm 1 mps 691 mmHg 94%
    20:00 +23°C° 0.4 mm 1 mps 692 mmHg 95%
    21:00 +22°C° 0.4 mm 1 mps 692 mmHg 95%
    22:00 +22°C° 0.4 mm 1 mps 692 mmHg 96%
    23:00 +22°C° 0.1 mm 1 mps 692 mmHg 96%

    Tomorrow, 26 April, Thursday

    Time Temperature Precipitation Wind Pressure Humidity
    00:00 +22°C° 0.1 mm 1 mps 692 mmHg 96%
    01:00 +20°C° 0.1 mm 0 mps 692 mmHg 97%
    02:00 +21°C° 0 mm 1 mps 691 mmHg 97%
    03:00 +21°C° 0 mm 1 mps 691 mmHg 97%
    04:00 +21°C° 0 mm 1 mps 691 mmHg 97%
    05:00 +21°C° 0 mm 1 mps 691 mmHg 96%
    06:00 +22°C° 0 mm 1 mps 691 mmHg 95%
    07:00 +22°C° 0 mm 1 mps 692 mmHg 94%
    08:00 +24°C° 0.4 mm 1 mps 692 mmHg 87%
    09:00 +26°C° 0.4 mm 1 mps 693 mmHg 81%
    10:00 +28°C° 0.4 mm 1 mps 693 mmHg 74%
    11:00 +29°C° 0.7 mm 1 mps 693 mmHg 71%
    12:00 +29°C° 0.7 mm 1 mps 692 mmHg 67%
    13:00 +30°C° 0.7 mm 1 mps 692 mmHg 63%
    14:00 +30°C° 0.6 mm 1 mps 691 mmHg 64%
    15:00 +30°C° 0.6 mm 1 mps 691 mmHg 65%
    16:00 +29°C° 0.6 mm 1 mps 690 mmHg 65%
    17:00 +28°C° 0.8 mm 1 mps 690 mmHg 72%
    18:00 +26°C° 0.8 mm 1 mps 690 mmHg 79%
    19:00 +24°C° 0.8 mm 1 mps 691 mmHg 86%
    20:00 +23°C° 0.7 mm 1 mps 691 mmHg 88%
    21:00 +21°C° 0.7 mm 0 mps 691 mmHg 91%
    22:00 +21°C° 0.7 mm 0 mps 692 mmHg 93%
    23:00 +20°C° 0.4 mm 0 mps 691 mmHg 94%

    Day after tomorrow, 27 April, Friday

    Time Temperature Precipitation Wind Pressure Humidity
    00:00 +20°C° 0.4 mm 0 mps 691 mmHg 95%
    01:00 +20°C° 0.4 mm 0 mps 691 mmHg 96%
    02:00 +22°C° 0.2 mm 1 mps 691 mmHg 96%
    03:00 +22°C° 0.2 mm 1 mps 691 mmHg 96%
    04:00 +21°C° 0.2 mm 1 mps 690 mmHg 96%
    05:00 +22°C° 0 mm 1 mps 691 mmHg 95%
    06:00 +22°C° 0 mm 1 mps 691 mmHg 94%
    07:00 +22°C° 0 mm 1 mps 691 mmHg 92%
    08:00 +25°C° 0 mm 1 mps 692 mmHg 81%
    09:00 +28°C° 0 mm 1 mps 693 mmHg 69%
    10:00 +30°C° 0 mm 1 mps 693 mmHg 57%
    11:00 +31°C° 0.2 mm 1 mps 693 mmHg 54%
    12:00 +32°C° 0.2 mm 1 mps 692 mmHg 50%
    13:00 +33°C° 0.2 mm 1 mps 691 mmHg 46%
    14:00 +32°C° 0.3 mm 1 mps 691 mmHg 51%
    15:00 +31°C° 0.3 mm 1 mps 690 mmHg 56%
    16:00 +30°C° 0.3 mm 1 mps 690 mmHg 60%
    17:00 +29°C° 0.5 mm 1 mps 690 mmHg 66%
    18:00 +27°C° 0.5 mm 1 mps 690 mmHg 71%
    19:00 +25°C° 0.5 mm 1 mps 690 mmHg 77%
    20:00 +25°C° 1.1 mm 1 mps 691 mmHg 82%
    21:00 +24°C° 1.1 mm 1 mps 691 mmHg 86%
    22:00 +23°C° 1.1 mm 1 mps 692 mmHg 91%
    23:00 +23°C° 2.6 mm 1 mps 692 mmHg 92%

    28 April, Saturday

    Time Temperature Precipitation Wind Pressure Humidity
    00:00 +23°C° 2.6 mm 1 mps 691 mmHg 93%
    01:00 +23°C° 2.6 mm 1 mps 691 mmHg 94%
    02:00 +23°C° 0.3 mm 1 mps 691 mmHg 94%
    03:00 +22°C° 0.3 mm 1 mps 691 mmHg 93%
    04:00 +22°C° 0.3 mm 1 mps 691 mmHg 92%
    05:00 +20°C° 0 mm 0 mps 691 mmHg 92%
    06:00 +21°C° 0 mm 0 mps 692 mmHg 91%
    07:00 +21°C° 0 mm 0 mps 692 mmHg 91%
    08:00 +23°C° 0.6 mm 0 mps 693 mmHg 85%
    09:00 +25°C° 0.6 mm 0 mps 693 mmHg 79%
    10:00 +28°C° 0.6 mm 1 mps 694 mmHg 73%
    11:00 +30°C° 0.4 mm 1 mps 693 mmHg 66%
    12:00 +29°C° 0.4 mm 0 mps 693 mmHg 60%
    13:00 +31°C° 0.4 mm 0 mps 692 mmHg 53%
    14:00 +30°C° 0.6 mm 0 mps 692 mmHg 56%
    15:00 +29°C° 0.6 mm 0 mps 691 mmHg 59%
    16:00 +28°C° 0.6 mm 0 mps 691 mmHg 61%
    17:00 +28°C° 0.4 mm 1 mps 691 mmHg 68%
    18:00 +26°C° 0.4 mm 1 mps 691 mmHg 75%
    19:00 +24°C° 0.4 mm 1 mps 691 mmHg 82%
    20:00 +24°C° 0.1 mm 1 mps 692 mmHg 83%
    21:00 +23°C° 0.1 mm 1 mps 692 mmHg 84%
    22:00 +21°C° 0.1 mm 0 mps 692 mmHg 86%
    23:00 +21°C° 0.2 mm 0 mps 692 mmHg 87%

    29 April, Sunday

    Time Temperature Precipitation Wind Pressure Humidity
    00:00 +20°C° 0.2 mm 0 mps 692 mmHg 89%
    01:00 +22°C° 0.2 mm 1 mps 691 mmHg 91%
    02:00 +22°C° 0.3 mm 1 mps 691 mmHg 93%
    03:00 +22°C° 0.3 mm 1 mps 691 mmHg 95%
    04:00 +21°C° 0.3 mm 1 mps 691 mmHg 97%
    05:00 +22°C° 0 mm 1 mps 691 mmHg 96%
    06:00 +22°C° 0 mm 1 mps 692 mmHg 95%
    07:00 +22°C° 0 mm 1 mps 692 mmHg 94%
    08:00 +25°C° 0.1 mm 1 mps 693 mmHg 84%
    09:00 +27°C° 0.1 mm 1 mps 693 mmHg 73%
    10:00 +29°C° 0.1 mm 2 mps 693 mmHg 63%
    11:00 +30°C° 0 mm 2 mps 693 mmHg 57%
    12:00 +31°C° 0 mm 1 mps 692 mmHg 51%
    13:00 +32°C° 0 mm 1 mps 692 mmHg 46%
    14:00 +32°C° 0 mm 1 mps 691 mmHg 50%
    15:00 +31°C° 0 mm 1 mps 691 mmHg 55%
    16:00 +28°C° 0 mm 0 mps 690 mmHg 59%
    17:00 +28°C° 0 mm 1 mps 690 mmHg 62%
    18:00 +27°C° 0 mm 1 mps 690 mmHg 65%
    19:00 +26°C° 0 mm 1 mps 691 mmHg 68%
    20:00 +25°C° 0 mm 1 mps 691 mmHg 70%
    21:00 +24°C° 0 mm 1 mps 691 mmHg 71%
    22:00 +22°C° 0 mm 0 mps 691 mmHg 73%
    23:00 +21°C° 0 mm 0 mps 691 mmHg 74%

    30 April, Monday

    Time Temperature Precipitation Wind Pressure Humidity
    00:00 +21°C° 0 mm 0 mps 691 mmHg 75%
    01:00 +21°C° 0 mm 0 mps 690 mmHg 77%
    02:00 +20°C° 0 mm 0 mps 690 mmHg 78%
    03:00 +20°C° 0 mm 0 mps 690 mmHg 79%
    04:00 +20°C° 0 mm 0 mps 690 mmHg 80%
    05:00 +20°C° 0 mm 0 mps 690 mmHg 80%
    06:00 +20°C° 0 mm 0 mps 691 mmHg 80%
    07:00 +21°C° 0 mm 0 mps 691 mmHg 80%
    08:00 +25°C° 0 mm 1 mps 692 mmHg 70%
    09:00 +28°C° 0 mm 1 mps 692 mmHg 61%
    10:00 +31°C° 0 mm 1 mps 693 mmHg 51%
    11:00 +32°C° 0 mm 1 mps 692 mmHg 48%
    12:00 +32°C° 0 mm 1 mps 691 mmHg 45%
    13:00 +33°C° 0 mm 1 mps 691 mmHg 42%
    14:00 +33°C° 0 mm 1 mps 690 mmHg 46%
    15:00 +32°C° 0 mm 1 mps 690 mmHg 49%
    16:00 +32°C° 0 mm 1 mps 690 mmHg 52%
    17:00 +30°C° 0 mm 1 mps 690 mmHg 57%
    18:00 +28°C° 0 mm 1 mps 690 mmHg 63%
    19:00 +24°C° 0 mm 0 mps 690 mmHg 69%
    20:00 +24°C° 0 mm 0 mps 691 mmHg 71%
    21:00 +23°C° 0 mm 0 mps 691 mmHg 74%
    22:00 +23°C° 0 mm 0 mps 691 mmHg 76%
    23:00 +22°C° 0.1 mm 0 mps 691 mmHg 79%
    Show more